Nashua, NH

1:23 AM EDT on September 20, 2017 (GMT -0400)
Boire

Weather History for KASH - February, 2014

Change the Weather History Date:

Tuesday, February 25, 2014

  Actual Average Record
Temperature  
Mean Temperature 20 °F -  
Max Temperature 27 °F 38 °F 68 °F (2017)
Min Temperature 12 °F 19 °F -7 °F (1959)
Degree Days  
Heating Degree Days 46    
Moisture  
Dew Point 4 °F    
Average Humidity 52    
Maximum Humidity 77    
Minimum Humidity 33    
Precipitation  
Precipitation 0.00 in - - ()
Sea Level Pressure  
Sea Level Pressure 30.70 in    
Wind  
Wind Speed 5 mph (WNW)    
Max Wind Speed 21 mph    
Max Gust Speed 29 mph    
Visibility 10 miles    
Events      
Averages and records for this station are not official NWS values.
T = Trace of Precipitation, MM = Missing Value Source: NWS Daily Summary

Daily Weather History Graph

Daily Weather History Graph

Search for Another Location

Airport or City:

Trip Planner

Search our weather history database for the weather conditions in past years. The results will help you decide how hot, cold, wet, or windy it might be!

Date:

Astronomy

Feb. 25, 2014 Rise Set
Actual Time 6:28 AM EST 5:30 PM EST
Civil Twilight 5:59 AM EST 5:59 PM EST
Nautical Twilight 5:26 AM EST 6:31 PM EST
Astronomical Twilight 4:54 AM EST 7:04 PM EST
Moon 3:24 AM EST (2/25) 1:29 PM EST (2/25)
Length of Visible Light 11h 59m
Length of Day
11h 02m
Waning Crescent, 18% of the Moon is Illuminated
Feb 25
Waning Crescent
Mar 1
New
Mar 8
First Quarter
Mar 16
Full
Mar 23
Last Quarter

Hourly Weather History & Observations

Time (EST) Temp. Windchill Dew Point Humidity Pressure Visibility Wind Dir Wind Speed Gust Speed Precip Events Conditions
12:51 AM 19.0 °F - 7.2 °F 60% 30.72 in 10.0 mi Calm Calm - N/A   Clear
1:51 AM 16.2 °F - 6.1 °F 65% 30.72 in 10.0 mi Calm Calm - N/A   Clear
2:51 AM 16.2 °F - 7.2 °F 68% 30.71 in 10.0 mi Calm Calm - N/A   Partly Cloudy
3:51 AM 15.1 °F - 7.2 °F 71% 30.72 in 10.0 mi Calm Calm - N/A   Overcast
4:51 AM 13.1 °F - 6.1 °F 74% 30.73 in 10.0 mi Calm Calm - N/A   Clear
5:51 AM 12.0 °F - 6.1 °F 77% 30.74 in 10.0 mi Calm Calm - N/A   Clear
6:51 AM 13.1 °F - 6.1 °F 74% 30.73 in 10.0 mi Calm Calm - N/A   Clear
7:51 AM 16.2 °F - 6.1 °F 65% 30.75 in 10.0 mi Calm Calm - N/A   Clear
8:51 AM 21.0 °F 9.9 °F 1.0 °F 42% 30.74 in 10.0 mi NW 10.4 mph - N/A   Clear
9:51 AM 23.0 °F 12.4 °F 1.0 °F 39% 30.72 in 10.0 mi WNW 10.4 mph - N/A   Clear
10:51 AM 25.2 °F 10.8 °F 0.1 °F 34% 30.70 in 10.0 mi NW 20.7 mph 28.8 mph N/A   Clear
11:51 AM 26.1 °F 12.7 °F 0.1 °F 33% 30.69 in 10.0 mi WNW 18.4 mph 24.2 mph N/A   Partly Cloudy
12:51 PM 27.1 °F 14.9 °F 3.0 °F 36% 30.66 in 10.0 mi West 16.1 mph 26.5 mph N/A   Mostly Cloudy
1:51 PM 27.1 °F 13.8 °F 3.0 °F 36% 30.65 in 10.0 mi WNW 19.6 mph 25.3 mph N/A   Mostly Cloudy
2:51 PM 26.1 °F 13.1 °F 3.0 °F 37% 30.65 in 10.0 mi NW 17.3 mph 20.7 mph N/A   Scattered Clouds
3:51 PM 25.2 °F 16.5 °F 4.1 °F 41% 30.65 in 10.0 mi WNW 8.1 mph 23.0 mph N/A   Mostly Cloudy
4:51 PM 24.1 °F 13.1 °F 3.0 °F 40% 30.66 in 10.0 mi NW 11.5 mph 21.9 mph N/A   Scattered Clouds
5:51 PM 23.0 °F 13.1 °F 3.0 °F 42% 30.67 in 10.0 mi WNW 9.2 mph - N/A   Clear
6:51 PM 22.1 °F 14.7 °F 3.0 °F 44% 30.69 in 10.0 mi WNW 5.8 mph - N/A   Clear
7:51 PM 21.0 °F 12.4 °F 3.0 °F 46% 30.70 in 10.0 mi West 6.9 mph - N/A   Clear
8:51 PM 18.1 °F - 5.0 °F 57% 30.70 in 10.0 mi Calm Calm - N/A   Clear
9:51 PM 18.1 °F - 4.1 °F 54% 30.71 in 10.0 mi Calm Calm - N/A   Clear
10:51 PM 18.1 °F 8.9 °F 4.1 °F 54% 30.72 in 10.0 mi Variable 6.9 mph - N/A   Clear
11:51 PM 17.1 °F - 5.0 °F 59% 30.71 in 10.0 mi Calm Calm - N/A   Clear